Weather History for KUBE - February, 2014

Change the Weather History Date:

Tuesday, February 25, 2014

  Actual Average (KRPD) Record (KRPD)
Temperature  
Mean Temperature -5 °F -  
Max Temperature 3 °F 28 °F 46 °F (1998)
Min Temperature -13 °F 12 °F -11 °F (2003)
Degree Days  
Heating Degree Days 70    
Moisture  
Dew Point -12 °F    
Average Humidity 65    
Maximum Humidity 85    
Minimum Humidity 51    
Precipitation  
Precipitation 0.00 in - - ()
Sea Level Pressure  
Sea Level Pressure 30.18 in    
Wind  
Wind Speed 11 mph (WNW)    
Max Wind Speed 18 mph    
Max Gust Speed 23 mph    
Visibility 10 miles    
Events      
Averages and records for this station are not official NWS values.
T = Trace of Precipitation, MM = Missing Value Source: NWS Daily Summary

Daily Weather History Graph

Daily Weather History Graph

Search for Another Location

Airport or City:

Trip Planner

Search our weather history database for the weather conditions in past years. The results will help you decide how hot, cold, wet, or windy it might be!

Date:

Astronomy

Feb. 25, 2014 Rise Set
Actual Time 6:53 AM CST 5:49 PM CST
Civil Twilight 6:23 AM CST 6:19 PM CST
Nautical Twilight 5:49 AM CST 6:53 PM CST
Astronomical Twilight 5:14 AM CST 7:27 PM CST
Moon 3:56 AM CST (2/25) 1:47 PM CST (2/25)
Length of Visible Light 11h 55m
Length of Day
10h 56m
Waning Crescent, 18% of the Moon is Illuminated
Feb 25
Waning Crescent
Mar 1
New
Mar 8
First Quarter
Mar 16
Full
Mar 23
Last Quarter

Hourly Weather History & Observations

Time (CST) Temp. Windchill Dew Point Humidity Pressure Visibility Wind Dir Wind Speed Gust Speed Precip Events Conditions
12:15 AM 3.2 °F -13.1 °F -0.4 °F 85% 30.20 in 10.0 mi West 11.5 mph - N/A   Clear
12:35 AM 3.2 °F -12.2 °F -0.4 °F 85% 30.20 in 7.0 mi West 10.4 mph - N/A   Scattered Clouds
12:55 AM 3.2 °F -13.1 °F -0.4 °F 85% 30.20 in 10.0 mi WNW 11.5 mph - N/A   Mostly Cloudy
1:15 AM 3.2 °F -13.1 °F -0.4 °F 85% 30.20 in 10.0 mi WNW 11.5 mph - N/A   Overcast
1:30 AM 3.2 °F -15.3 °F -0.4 °F 85% 30.19 in 10.0 mi WNW 15.0 mph - N/A   Overcast
1:55 AM 3.2 °F -12.2 °F -2.2 °F 78% 30.20 in 10.0 mi NW 10.4 mph - N/A   Overcast
2:15 AM 1.4 °F -17.6 °F -5.8 °F 72% 30.20 in 10.0 mi NW 15.0 mph - N/A   Scattered Clouds
3:55 AM -4.0 °F -22.1 °F -11.2 °F 71% 30.21 in 10.0 mi WNW 11.5 mph - N/A   Clear
4:15 AM -5.8 °F -22.4 °F -13.0 °F 71% 30.21 in 10.0 mi NW 9.2 mph - N/A   Clear
4:35 AM -5.8 °F -21.2 °F -13.0 °F 71% 30.21 in 10.0 mi WNW 8.1 mph - N/A   Clear
4:55 AM -7.6 °F -24.6 °F -13.0 °F 77% 30.21 in 10.0 mi WNW 9.2 mph - N/A   Clear
5:15 AM -7.6 °F -24.6 °F -14.8 °F 71% 30.21 in 10.0 mi WNW 9.2 mph - N/A   Clear
5:35 AM -7.6 °F -24.6 °F -14.8 °F 71% 30.21 in 10.0 mi WNW 9.2 mph - N/A   Clear
5:55 AM -9.4 °F -26.8 °F -14.8 °F 77% 30.21 in 10.0 mi West 9.2 mph - N/A   Clear
6:15 AM -9.4 °F -25.6 °F -14.8 °F 77% 30.20 in 10.0 mi West 8.1 mph - N/A   Clear
6:35 AM -9.4 °F -25.6 °F -14.8 °F 77% 30.20 in 10.0 mi West 8.1 mph - N/A   Clear
6:55 AM -13.0 °F -30.0 °F -16.6 °F 84% 30.19 in 10.0 mi West 8.1 mph - N/A   Clear
7:15 AM -13.0 °F -31.3 °F -16.6 °F 84% 30.19 in 10.0 mi West 9.2 mph - N/A   Clear
7:35 AM -11.2 °F -29.0 °F -14.8 °F 84% 30.20 in 10.0 mi West 9.2 mph - N/A   Clear
7:55 AM -9.4 °F -27.9 °F -14.8 °F 77% 30.20 in 10.0 mi West 10.4 mph - N/A   Clear
8:15 AM -9.4 °F -28.9 °F -14.8 °F 77% 30.20 in 10.0 mi WNW 11.5 mph - N/A   Clear
8:35 AM -7.6 °F -27.5 °F -14.8 °F 71% 30.20 in 10.0 mi WNW 12.7 mph - N/A   Clear
8:55 AM -5.8 °F -22.4 °F -13.0 °F 71% 30.20 in 10.0 mi WNW 9.2 mph - N/A   Clear
9:15 AM -5.8 °F -23.4 °F -13.0 °F 71% 30.20 in 10.0 mi WNW 10.4 mph 16.1 mph N/A   Clear
9:35 AM -4.0 °F -20.2 °F -13.0 °F 65% 30.19 in 10.0 mi WNW 9.2 mph - N/A   Clear
9:55 AM -4.0 °F -20.2 °F -13.0 °F 65% 30.19 in 10.0 mi West 9.2 mph - N/A   Clear
10:15 AM -4.0 °F -21.2 °F -13.0 °F 65% 30.18 in 10.0 mi West 10.4 mph - N/A   Clear
10:35 AM -2.2 °F -19.9 °F -13.0 °F 60% 30.19 in 10.0 mi WNW 11.5 mph 16.1 mph N/A   Clear
11:15 AM -0.4 °F -18.4 °F -11.2 °F 60% 30.19 in 10.0 mi West 12.7 mph - N/A   Clear
11:35 AM 1.4 °F -16.1 °F -11.2 °F 56% 30.19 in 10.0 mi West 12.7 mph 17.3 mph N/A   Clear
11:55 AM 1.4 °F -18.2 °F -9.4 °F 61% 30.18 in 10.0 mi WNW 16.1 mph - N/A   Clear
12:15 PM 1.4 °F -15.3 °F -9.4 °F 61% 30.17 in 10.0 mi WNW 11.5 mph 17.3 mph N/A   Clear
12:35 PM 1.4 °F -16.1 °F -9.4 °F 61% 30.17 in 10.0 mi West 12.7 mph - N/A   Scattered Clouds
12:55 PM 3.2 °F -14.6 °F -9.4 °F 56% 30.16 in 10.0 mi WNW 13.8 mph - N/A   Scattered Clouds
1:15 PM 3.2 °F -13.9 °F -9.4 °F 56% 30.15 in 10.0 mi West 12.7 mph - N/A   Clear
1:35 PM 3.2 °F -14.6 °F -9.4 °F 56% 30.15 in 10.0 mi West 13.8 mph 19.6 mph N/A   Clear
1:50 PM 3.2 °F -14.6 °F -9.4 °F 56% 30.15 in 10.0 mi West 13.8 mph - N/A   Clear
2:15 PM 3.2 °F -15.3 °F -9.4 °F 56% 30.14 in 10.0 mi West 15.0 mph - N/A   Clear
2:35 PM 3.2 °F -15.9 °F -9.4 °F 56% 30.14 in 10.0 mi WNW 16.1 mph 21.9 mph N/A   Clear
2:50 PM 3.2 °F -13.9 °F -9.4 °F 56% 30.14 in 10.0 mi West 12.7 mph 18.4 mph N/A   Scattered Clouds
3:15 PM 3.2 °F -15.9 °F -9.4 °F 56% 30.14 in 10.0 mi West 16.1 mph - N/A   Scattered Clouds
3:35 PM 3.2 °F -14.6 °F -9.4 °F 56% 30.14 in 10.0 mi West 13.8 mph 18.4 mph N/A   Scattered Clouds
3:55 PM 3.2 °F -15.3 °F -9.4 °F 56% 30.14 in 10.0 mi WNW 15.0 mph 19.6 mph N/A   Scattered Clouds
4:15 PM 3.2 °F -14.6 °F -9.4 °F 56% 30.14 in 10.0 mi WNW 13.8 mph 20.7 mph N/A   Mostly Cloudy
4:35 PM 3.2 °F -13.9 °F -9.4 °F 56% 30.14 in 10.0 mi WNW 12.7 mph - N/A   Scattered Clouds
4:55 PM 3.2 °F -15.3 °F -9.4 °F 56% 30.14 in 10.0 mi WNW 15.0 mph 18.4 mph N/A   Scattered Clouds
5:15 PM 3.2 °F -17.1 °F -11.2 °F 51% 30.14 in 10.0 mi WNW 18.4 mph 23.0 mph N/A   Scattered Clouds
5:35 PM 1.4 °F -15.3 °F -11.2 °F 56% 30.15 in 10.0 mi WNW 11.5 mph - N/A   Scattered Clouds
5:55 PM 1.4 °F -16.1 °F -13.0 °F 51% 30.16 in 10.0 mi WNW 12.7 mph - N/A   Clear
6:15 PM -0.4 °F -16.7 °F -13.0 °F 55% 30.16 in 10.0 mi WNW 10.4 mph - N/A   Clear
6:35 PM -0.4 °F -17.6 °F -13.0 °F 55% 30.16 in 10.0 mi West 11.5 mph - N/A   Clear
6:55 PM -2.2 °F -18.9 °F -13.0 °F 60% 30.17 in 10.0 mi West 10.4 mph - N/A   Clear
7:15 PM -2.2 °F -18.0 °F -13.0 °F 60% 30.17 in 10.0 mi WNW 9.2 mph - N/A   Clear
7:30 PM -0.4 °F -15.7 °F -13.0 °F 55% 30.17 in 10.0 mi WNW 9.2 mph - N/A   Clear
7:55 PM -2.2 °F -18.0 °F -13.0 °F 60% 30.18 in 10.0 mi WNW 9.2 mph - N/A   Clear
8:15 PM -4.0 °F -21.2 °F -14.8 °F 60% 30.18 in 10.0 mi WNW 10.4 mph - N/A   Clear
8:35 PM -0.4 °F -15.7 °F -13.0 °F 55% 30.18 in 10.0 mi NW 9.2 mph - N/A   Clear
8:55 PM -2.2 °F -18.9 °F -14.8 °F 55% 30.19 in 10.0 mi NW 10.4 mph - N/A   Clear
9:15 PM -2.2 °F -18.9 °F -14.8 °F 55% 30.19 in 10.0 mi NW 10.4 mph - N/A   Clear
9:35 PM -4.0 °F -19.0 °F -16.6 °F 55% 30.20 in 10.0 mi WNW 8.1 mph - N/A   Clear
9:55 PM -4.0 °F -21.2 °F -16.6 °F 55% 30.20 in 10.0 mi NW 10.4 mph - N/A   Clear
10:15 PM -4.0 °F -21.2 °F -16.6 °F 55% 30.20 in 10.0 mi WNW 10.4 mph - N/A   Clear
10:35 PM -4.0 °F -20.2 °F -16.6 °F 55% 30.20 in 10.0 mi WNW 9.2 mph - N/A   Clear
10:55 PM -5.8 °F -25.2 °F -16.6 °F 60% 30.20 in 10.0 mi NW 12.7 mph - N/A   Clear
11:15 PM -5.8 °F -23.4 °F -18.4 °F 55% 30.20 in 10.0 mi WNW 10.4 mph 16.1 mph N/A   Clear
11:35 PM -5.8 °F -22.4 °F -18.4 °F 55% 30.20 in 10.0 mi WNW 9.2 mph 16.1 mph N/A   Clear
11:55 PM -9.4 °F -26.8 °F -18.4 °F 65% 30.20 in 10.0 mi West 9.2 mph - N/A   Clear